431  
ASUS45 KPSR 090010  
RWRAZ  
 
ARIZONA HOURLY REGIONAL WEATHER ROUNDUP  
NATIONAL WEATHER SERVICE PHOENIX AZ  
500 PM MST MON AUG 08 2022  
 
NOTE: FAIR INDICATES FEW OR NO CLOUDS BELOW 12,000 FEET WITH NO  
SIGNIFICANT WEATHER AND/OR S TO VISIBILITY
.  
 
AZZ001>003-036-090100-  
NORTHWEST ARIZONA  
 
CITY SKY/WX TMP DP RH WIND PRES REMARKS
 
BULLHEAD CITY PTSUNNY 104 59 22 S9 29.80F HX 104  
KINGMAN CLOUDY 85 61 44 SE14 30.04R  
6HR MIN TEMP: 85; 6HR MAX TEMP: 94;  
 

 
 
AZZ004>008-015-016-018-090100-  
NORTH CENTRAL ARIZONA  
 
CITY SKY/WX TMP DP RH WIND PRES REMARKS
 
GRAND CANYON PTSUNNY 69 61 75 W3 30.27S  
6HR MIN TEMP: 63; 6HR MAX TEMP: 85; 6HR PCP: 0.46;  
 
WILLIAMS CLOUDY 66 61 82 SE10 30.29R  
PRESCOTT TSTM 63 60 90 N8G51 30.22R VSB 1/4  
6HR MIN TEMP: 65; 6HR MAX TEMP: 88; 6HR PCP: 0.03;  
 
FLAGSTAFF PTSUNNY 71 54 54 SW6 30.31F  
6HR MIN TEMP: 70; 6HR MAX TEMP: 83;  
 
PAYSON PTSUNNY 77 57 50 CALM 30.18R  
PAGE SUNNY 99 42 14 NW6 30.02F  
6HR MIN TEMP: 88; 6HR MAX TEMP: 100;  
 

 
 
AZZ009>014-017-090100-  
NORTHEAST ARIZONA  
 
CITY SKY/WX TMP DP RH WIND PRES REMARKS
 
WINSLOW MOSUNNY 89 52 28 CALM 30.11F  
6HR MIN TEMP: 77; 6HR MAX TEMP: 91;  
 
WINDOW ROCK MOSUNNY 84 51 31 VRB6 30.26F  
6HR MIN TEMP: 70; 6HR MAX TEMP: 86;  
 
SHOW LOW DRIZZLE 70 57 64 SE9 30.27S  

 
 
AZZ540-542>544-546-548-090100-  
GREATER PHOENIX AREA  
 
CITY SKY/WX TMP DP RH WIND PRES REMARKS
 
PHOENIX MOSUNNY 101 61 26 S3 29.81F HX 102  
6HR MIN TEMP: 94; 6HR MAX TEMP: 104;  
 
BUCKEYE N/A 100 64 30 W6 29.83F HX 103  
LUKE AFB SUNNY 102 61 25 S10 29.80F HX 103  
6HR MIN TEMP: 95; 6HR MAX TEMP: 102;  
 
DEER VALLEY SUNNY 99 62 29 MISG 29.85S HX 100  
6HR MIN TEMP: 92; 6HR MAX TEMP: 101;  
 
SCOTTSDALE SUNNY 100 62 28 S8 29.85F HX 101  
6HR MIN TEMP: 92; 6HR MAX TEMP: 102;  
 
MESA-FALCON MOSUNNY 101 61 26 W9 29.83F HX 102  
6HR MIN TEMP: 93; 6HR MAX TEMP: 102;  
 
MESA-GATEWAY MOSUNNY 100 59 25 SW8 29.85F HX 100  
CHANDLER MOSUNNY 102 61 25 SW10 29.83F HX 103  

 
 
AZZ539-553-090100-  
SOUTHWEST MARICOPA COUNTY AND PINAL COUNTY  
 
CITY SKY/WX TMP DP RH WIND PRES REMARKS
 
CASA GRANDE MOSUNNY 99 61 28 VRB6 29.87S  
6HR MIN TEMP: 92; 6HR MAX TEMP: 100;  
 
GILA BEND PTSUNNY 96 66 37 SE13 29.83F  
6HR MIN TEMP: 95; 6HR MAX TEMP: 101;  
 

 
 
AZZ503-504-507>509-090100-  
SOUTHEAST ARIZONA  
 
CITY SKY/WX TMP DP RH WIND PRES REMARKS
 
TUCSON PTSUNNY 97 60 29 MISG 29.96S  
6HR MIN TEMP: 90; 6HR MAX TEMP: 99;  
 
DAVIS-MONTHAN PTSUNNY 95 59 30 NW5 29.92F  
6HR MIN TEMP: 85; 6HR MAX TEMP: 95;  
 
RYAN FIELD SUNNY 95 57 28 SW5 29.92F  
NOGALES PTSUNNY 77 66 68 NE9 30.06S  
6HR MIN TEMP: 76; 6HR MAX TEMP: 89;  
 
SIERRA VISTA PTSUNNY 82 59 44 W10 30.13S  
SAFFORD CLOUDY 93 60 33 MISG 29.95F  
6HR MIN TEMP: 86; 6HR MAX TEMP: 95;  
 

 
 
AZZ532-090100-  
SOUTHWEST ARIZONA  
 
CITY SKY/WX TMP DP RH WIND PRES REMARKS
 
YUMA PTSUNNY 103 68 32 VRB5 29.78F HX 109  
6HR MIN TEMP: 95; 6HR MAX TEMP: 103;  
 

 
 
CAZ041-043-047-048-061-525>527-560>570-090100-  
SOUTHERN CALIFORNIA  
 
CITY SKY/WX TMP DP RH WIND PRES REMARKS
 
DOWNTOWN L.A. SUNNY 84 64 50 VRB3 29.86F  
6HR MIN TEMP: 82; 6HR MAX TEMP: 89;  
 
L.A. AIRPORT MOSUNNY 76 63 64 W14 29.88F  
6HR MIN TEMP: 76; 6HR MAX TEMP: 82;  
 
SAN DIEGO PTSUNNY 79 62 56 SW6 29.89F  
6HR MIN TEMP: 75; 6HR MAX TEMP: 81;  
 
BURBANK SUNNY 91 59 33 S12 29.87F  
6HR MIN TEMP: 86; 6HR MAX TEMP: 95;  
 
ONTARIO MOSUNNY 94 54 25 W14G22 29.88S  
6HR MIN TEMP: 85; 6HR MAX TEMP: 97;  
 
RIVERSIDE MOSUNNY 94 55 26 W14G22 29.86S  
6HR MIN TEMP: 87; 6HR MAX TEMP: 99;  
 
PALM SPRINGS CLOUDY 92 60 34 SE9 29.84F  
6HR MIN TEMP: 89; 6HR MAX TEMP: 106;  
 
EL CENTRO NAS PTSUNNY 105 68 30 E9 29.76F HX 112  
6HR MIN TEMP: 96; 6HR MAX TEMP: 106;  
 
IMPERIAL PTSUNNY 103 68 32 E12 29.75F HX 109  
6HR MIN TEMP: 95; 6HR MAX TEMP: 105;  
 
BLYTHE SUNNY 93 71 48 W13 29.83F HX 100  
6HR MIN TEMP: 79; 6HR MAX TEMP: 96; 6HR PCP: 0.15;  
 
NEEDLES MOSUNNY 103 60 24 W9 29.83F HX 104  
6HR MIN TEMP: 95; 6HR MAX TEMP: 104;  
 

 
 
NVZ020-UTZ003-090100-  
SOUTHERN NEVADA-UTAH  
 
CITY SKY/WX TMP DP RH WIND PRES REMARKS
 
LAS VEGAS PTSUNNY 98 57 25 S12 29.88S  
6HR MIN TEMP: 96; 6HR MAX TEMP: 102;  
 
SALT LAKE CITY MOSUNNY 93 36 13 NE6 30.10F  
6HR MIN TEMP: 86; 6HR MAX TEMP: 94;  
 

 
 
NMZ009-TXZ055-090100-  
NEW MEXICO-WEST TEXAS  
 
CITY SKY/WX TMP DP RH WIND PRES REMARKS
 
ALBUQUERQUE PTSUNNY 83 47 28 SE17 30.20S  
6HR MIN TEMP: 81; 6HR MAX TEMP: 90; 6HR PCP: TRACE;  
 
EL PASO CLOUDY 86 55 34 E18G32 30.05R  
6HR MIN TEMP: 86; 6HR MAX TEMP: 94;  
 

 
 
   
.......................KEY.....................
 
 
SKY/WX - SKY CONDITION/WEATHER  
TMP - TEMPERATURE IN FAHRENHEIT  
DP - DEW POINT IN FAHRENHEIT  
RH - RELATIVE HUMIDITY IN PERCENT  
WIND - DIRECTION AND SPEED IN MILES PER HOUR (MPH)  
VRB - VARIABLE WIND DIRECTION  
PRES - MEAN SEA LEVEL PRESSURE IN INCHES OF MERCURY  
F - FALLING PRESSURE R - RISING PRESSURE  
S - STEADY PRESSURE  
VSB - VISIBILITY IN MILES  
HX - HEAT INDEX IN FAHRENHEIT  
WCI - WIND CHILL INDEX IN FAHRENHEIT  
TC - TEMPERATURE IN CELSIUS WHICH IS ALSO KNOWN AS  
TEMPERATURE IN CENTIGRADE  
AFB - AIR FORCE BASE  
LUKE AFB IS LUKE AIR FORCE BASE  
DAVIS-MONTHAN IS DAVIS-MONTHAN AIR FORCE BASE  
NAS - NAVAL AIR STATION  
EL CENTRO NAS IS EL CENTRO NAVAL AIR STATION  
N/A - NOT AVAILABLE  
 
 
 
CLICK HERE TO GO TO PREVIOUS BULLETINS.

The Nexlab AZ Page Main Text Page